www.pogodaiklimat.ru

Погода и климат >> Архив погоды >> Аргентина >> Las Lomitas


ПОГОДА в Las Lomitas

  • Прогноз погоды в Las Lomitas
  • Монитор погоды в Las Lomitas
  • Климат города

АРХИВ ПОГОДЫ в Las Lomitas

Время (UTC), дата Ветер
(напр.,м/с)
 
Видим.   Явления Облачность Т
(С)
Тd
(С)
f
(%)
Тe
(С)
Тes
(С)
Комфортность P
(гПа)
Po
(гПа)
Тmin
(С)
Tmax
(С)
R
(мм)
R24
(мм)
S
(см)
15 14.11 ЮЗ 2 20 км 6/0
[Ac As]
+25.8 +15.4 53 +29 +41 душно 1013.7 998.8
18 14.11 ЮВ 3 20 км ясно +29.8 +12.3 34 +31 +45 жарко 1010.8 996.0
21 14.11 ЮВ 2 20 км ясно +30.0 +11.7 32 +31 +34 жарко 1009.2 994.4
00 15.11 штиль 0 20 км ясно +24.7 +12.9 48 +27 +27 жарко 1010.3 995.3 +22.8 +30.5
09 15.11 ЮВ 1 20 км 3/0
[Ci]
+17.0 +13.1 78 +18 +18 1011.5 996.5
12 15.11 СВ 1 20 км ясно +25.4 +12.8 46 +27 +35 жарко 1012.3 997.3
15 15.11 СВ 1 20 км ясно +29.6 +12.9 36 +31 +55 опасность
солнечного
удара
1011.1 996.4
18 15.11 В 1 20 км ясно +32.5 +9.6 24 +32 +52 опасность
солнечного
удара
1008.4 993.6
21 15.11 В 2 20 км 3/0
[Ci fib]
+32.1 +11.3 28 +32 +35 жарко 1006.7 991.8
00 16.11 В 2 20 км ясно +25.7 +14.2 49 +28 +28 жарко 1008.2 993.4 +25.4 +32.9
09 16.11 штиль 0 20 км 3/0
[Ac trans]
+21.6 +16.4 72 +25 +25 комфорт 1010.1 995.4
12 16.11 СВ 2 20 км 5/0
[Ac trans Ci fib]
+27.8 +15.9 48 +31 +37 душно 1011.8 997.0 +21.6 +27.8
15 16.11 СВ 2 20 км 5/0
[Cs]
+32.0 +19.7 48 +38 +58 опасность
солнечного
удара
1011.6 996.9
18 16.11 В 1 20 км 9/9 900 м
[Cu hum]
+34.6 +20.8 45 +42 +44 опасность
перегрева
1008.4 993.7
21 16.11 В 1 20 км 5/5 1050 м
[Cu hum Ci]
+34.0 +21.1 47 +41 +43 опасность
перегрева
1005.7 991.0
00 17.11 СВ 1 20 км 5/0
[Ac trans]
+29.8 +21.6 61 +38 +38 очень
душно
1006.0 991.3 +27.8 +35.0
09 17.11 С 2 20 км 4/0
[Ac trans]
+26.8 +23.3 81 +36 +36 очень
душно
1005.9 991.3
12 17.11 С 3 20 км 3/0
[Ac trans]
+30.4 +21.6 59 +38 +43 очень
душно
1006.3 991.7 +26.6 +30.4
15 17.11 С 4 20 км 3/3 1500 м
[Cu hum]
+35.2 +22.3 47 +44 +55 опасность
перегрева
1005.3 990.8
18 17.11 С 3 20 км 5/5 900 м
[Cu hum]
+37.4 +21.5 40 +45 +53 опасность
перегрева
1002.6 988.2
21 17.11 СВ 2 20 км 3/3 900 м
[Cu hum]
+36.2 +22.1 44 +45 +47 опасность
перегрева
1001.2 986.8
00 18.11 СВ 1 20 км зарница 3/1 1500 м
[Cb cap Ci fib]
+32.4 +22.3 55 +41 +41 опасность
перегрева
1002.8 988.4 +30.4 +38.0
09 18.11 Ю 9 10 км сильная гроза, ливневой дождь 10/4 900 м
[Cb cap As op]
+20.7 +19.9 95 +25 +25 комфорт 1010.7 996.1
12 18.11 Ю 3 20 км в посл. час гроза {дождь} 10/10 450 м
[St]
+22.5 +21.1 92 +30 +30 очень
душно
1012.5 997.7 +20.4 +32.4 14
15 18.11 Ю 3 20 км дождь 10/0 900 м
[As op]
+19.6 +18.3 92 +23 +26 комфорт 1015.8 1000.9
18 18.11 Ю 2 20 км в посл. час дождь 10/10 300 м
[St]
+20.0 +18.1 89 +24 +24 комфорт 1015.6 1000.4 7
21 18.11 ЮВ 1 20 км 8/8
[Cb calv Ac cuf]
+21.0 +15.7 72 +26 +26 душно 1015.0 999.8
00 19.11 штиль 0 20 км 9/0
[Ac As]
+20.2 +17.6 85 +23 +23 комфорт 1016.9 1001.7 +19.6 +22.6
09 19.11 штиль 0 20 км 3/0
[Ac trans]
+16.8 +16.1 96 +17 +17 1016.4 1001.2
12 19.11 ЮВ 2 20 км 3/0
[Ci fib]
+21.8 +14.4 63 +25 +32 комфорт 1017.1 1001.8 +16.8 +21.8 7
15 19.11 В 2 20 км 3/0
[Ci fib]
+26.4 +14.9 49 +29 +50 жарко 1016.1 1001.0
18 19.11 В 1 20 км 4/0
[Ci]
+29.0 +13.0 37 +30 +49 жарко 1013.5 998.5
21 19.11 В 1 20 км 4/0
[Ci]
+28.8 +12.7 37 +30 +33 жарко 1011.5 996.5
00 20.11 штиль 0 20 км ясно +22.4 +22.1 98 +30 +30 очень
душно
1012.7 997.6 +21.8 +29.4
09 20.11 В 2 20 км 4/0
[Ci fib]
+16.5 +14.2 86 +17 +17 1013.5 998.4
12 20.11 В 2 20 км 5/0
[Ci fib]
+25.1 +15.9 57 +28 +35 жарко 1014.7 999.7 +16.5 +25.1
15 20.11 штиль 0 20 км 6/3 1200 м
[Cu hum Cs]
+29.5 +18.5 52 +35 +52 опасность
солнечного
удара
1014.2 999.3
18 20.11 СЗ 1 20 км 5/5 1050 м
[Cu hum]
+31.4 +19.7 50 +37 +48 очень
душно
1012.1 997.3
21 20.11 СЗ 1 20 км 3/3 1500 м
[Cu hum]
+31.6 +18.1 45 +36 +39 очень
душно
1010.5 995.6
00 21.11 штиль 0 20 км ясно +26.6 +19.9 67 +33 +33 очень
душно
1011.3 996.5 +25.1 +32.5
09 21.11 СВ 1 20 км ясно +22.4 +19.3 83 +28 +28 душно 1011.0 996.2 +12.5
12 21.11 СВ 1 20 км ясно +28.2 +20.1 61 +34 +43 очень
душно
1012.2 997.4 +22.4 +28.4

 

Местоположение метеостанции Las Lomitas (Аргентина): широта -24.70 долгота -60.58 высота над уровнем моря 130 м.

В архиве по умолчанию представлена погода в Las Lomitas за последнюю неделю. Архивные данные за месяц целиком и за предыдущие месяцы, начиная с января 2011 года, Вы можете получить, выбрав интересующий диапазон дат из раскрывающегося списка и нажав кнопку "Ввод!".


*Определитесь, кто Вы:
робот инопланетянин человек

Внимание! Время в таблицах - всемирное. Для получения местного времени необходимо прибавить поправку, которая в Las Lomitas равна -3 ч.

Смотрите также архив погоды в соседних городах и на ближайших метеорологических станциях:

Погода в Gral. Bruguez (Парагвай) (177 км)
Погода в Pozo Colorado (Парагвай) (225 км)
Погода в Presidencia Roque Saenz Pena (Аргентина) (226 км)
Погода в Prats-Gil (Парагвай) (241 км)
Погода в Formosa (Аргентина) (289 км)
Погода в Mariscal Estigar (Парагвай) (299 км)
Погода в Asuncion (Парагвай) (316 км)
Погода в Pilar (Парагвай) (330 км)
Погода в Resistencia (Аргентина) (342 км)
Погода в Corrientes (Аргентина) (356 км)

Пояснения к столбцам:

Ветер - указаны скорость ветра в м/с - средняя за 10 мин, порывы в срок и между сроками (в фигурных скобках) и направление, откуда дует ветер: С - северный, СВ - северо-восточный, В - восточный, ЮВ - юго-восточный, Ю - южный, ЮЗ - юго-западный, З - западный, СЗ - северо-западный.
Видимость - горизонтальная дальность видимости в метрах или километрах. При видимости от 1 до 10 км при отсутствии осадков обычно наблюдается дымка, при ухудшении видимости до 1 км и менее - туман. В сухую погоду видимость может ухудшаться дымом, пылью или мглою.
Явления - указаны атмосферные явления, наблюдавшиеся в срок или в последний час перед сроком; фигурными скобками обозначены явления, наблюдавшиеся между сроками (за 1-3 часа до срока); квадратными скобками обозначены град или гололедные отложения с указанием их диаметра в мм.
Облачность - указаны через наклонную черту общая и нижняя облачность в баллах и высота нижней границы облаков в метрах; квадратными скобками обозначены формы облаков: Ci - перистые, Cs - перисто-слоистые, Cc - перисто-кучевые, Ac - высококучевые, As - высокослоистые, Sc - слоисто-кучевые, Ns - слоисто-дождевые, Cu - кучевые, Cb - кучево-дождевые. Подробнее классификацию облаков см. в Атласе облаков (PDF).
T - Температура воздуха - температура, измеренная на высоте 2 м над землей.
Td - Температура точки росы - температура, при понижении до которой содержащийся в воздухе водяной пар достигнет насыщения.
f - Относительная влажность воздуха - влажноcть воздуха, измеренная на высоте 2 м над землей.
Te - Эффективная температура - температура, которую ощущает одетый по сезону человек в тени. Характеристика душности погоды. При расчете учитывается влияние влажности воздуха и скорости ветра на теплоощущения человека.
Tes - Эффективная температура на солнце - температура, которую ощущает человек, с поправкой на солнечный нагрев. Характеристика знойности погоды. Зависит от высоты солнца над горизонтом, облачности и скорости ветра. Ночью, в пасмурную погоду, а также при ветре 12 м/с и более поправка равна нулю.
P - Атмосферное давление - приведенное к уровню моря атмосферное давление.
Po - Атмосферное давление - измеренное на уровне метеостанции атмосферное давление.
Tmin - Минимальная температура - минимум температуры воздуха на высоте 2 м над землей.
Tmax - Максимальная температура - максимум температуры воздуха на высоте 2 м над землей.
R - Количество осадков - Количество выпавших осадков за период времени, мм. При наведении курсора мыши на число - период времени, за который выпало указанное количество осадков.
R24 - Количество осадков - Количество выпавших осадков за 24 часа, мм.
S - Снежный покров - Высота снежного покрова, см. При наведении курсора мыши на число - состояние снежного покрова и степень покрытия местности в баллах.